GW4642 Weather Reports


time (UTC)temp
C
wind
direction
speed
KPH
gust
KPH
rain 1hr
cm
rain 24hr
cm
rain mn
cm
humidity
%
barometer
mb
20260906025847 27 197 0.0 1.6 0.00 0.00 0.00 84 1012.5
20260906025341 27 195 0.0 0.0 0.00 0.00 0.00 83 1012.3
20260906024840 27 229 0.0 1.6 0.00 0.00 0.00 83 1012.1
20260906024339 27 205 0.0 0.0 0.00 0.00 0.00 82 1012.1
20260906023835 27 224 0.0 0.0 0.00 0.00 0.00 81 1012.1
20260906023331 28 225 0.0 1.6 0.00 0.00 0.00 81 1012.1
20260906022826 28 235 0.0 1.6 0.00 0.00 0.00 81 1012.2
20260906022321 27 194 0.0 1.6 0.00 0.00 0.00 83 1012.1
20260906021817 27 252 0.0 1.6 0.00 0.00 0.00 84 1012.1
20260906021315 27 202 0.0 0.0 0.00 0.00 0.00 83 1012.0
20260906020810 27 212 0.0 0.0 0.00 0.00 0.00 83 1012.0
20260906020309 27 205 0.0 0.0 0.00 0.00 0.00 82 1012.0
20260906015804 28 205 0.0 0.0 0.00 0.00 0.00 82 1012.0
20260906015305 28 202 0.0 0.0 0.00 0.00 0.00 82 1012.1
20260906014802 28 202 0.0 0.0 0.00 0.00 0.00 81 1012.0
20260906014258 28 202 0.0 0.0 0.00 0.00 0.00 81 1012.1
20260906013755 28 202 0.0 0.0 0.00 0.00 0.00 81 1011.9
20260906013255 28 202 0.0 0.0 0.00 0.00 0.00 80 1011.8
20260906012750 28 202 0.0 0.0 0.00 0.00 0.00 79 1011.8
20260906012245 28 202 0.0 0.0 0.00 0.00 0.00 79 1011.7
20260906011740 28 202 0.0 0.0 0.00 0.00 0.00 78 1011.8
20260906011239 28 202 0.0 0.0 0.00 0.00 0.00 78 1011.7
20260906010735 28 202 0.0 0.0 0.00 0.00 0.00 78 1011.5
20260906010232 29 202 0.0 0.0 0.00 0.00 0.00 77 1011.5
20260906005727 29 202 0.0 0.0 0.00 0.00 0.00 76 1011.6
20260906005226 29 202 0.0 0.0 0.00 0.00 0.00 76 1011.5
20260906004725 29 202 0.0 0.0 0.00 0.00 0.00 75 1011.5
20260906004220 30 202 0.0 0.0 0.00 0.00 0.00 74 1011.4
20260906003715 30 202 0.0 0.0 0.00 0.00 0.00 73 1011.5
20260906003211 30 195 0.0 0.0 0.00 0.00 0.00 72 1011.5
20260906002706 30 242 0.0 0.0 0.00 0.00 0.00 70 1011.6
20260906002201 31 284 0.0 0.0 0.00 0.00 0.00 68 1011.6
20260906001655 31 309 0.0 0.0 0.00 0.00 0.00 67 1011.6
20260906001155 31 297 0.0 0.0 0.00 0.00 0.00 66 1011.6
20260906000651 31 284 0.0 0.0 0.00 0.00 0.00 66 1011.6
20260906000146 32 269 0.0 0.0 0.00 0.00 0.00 66 1011.8
20260905235645 32 269 0.0 0.0 0.00 0.00 0.00 64 1011.6
20260905235140 32 269 0.0 1.6 0.00 0.00 0.00 65 1011.8
20260905234635 32 290 0.0 0.0 0.00 0.00 0.00 64 1011.6
20260905234132 32 269 0.0 0.0 0.00 0.00 0.00 62 1011.7
20260905233631 32 269 0.0 0.0 0.00 0.00 0.00 63 1011.8
20260905233125 33 269 0.0 1.6 0.00 0.00 0.00 62 1011.7
20260905232621 33 293 0.0 0.0 0.00 0.00 0.00 59 1011.7
20260905232117 34 62 0.0 0.0 0.00 0.00 0.00 58 1011.5
20260905231617 34 62 0.0 0.0 0.00 0.00 0.00 55 1011.7
20260905231113 35 217 0.0 1.6 0.00 0.00 0.00 55 1011.6
20260905230609 35 164 0.0 0.0 0.00 0.00 0.00 52 1011.7
20260905230107 35 181 1.6 1.6 0.00 0.00 0.00 51 1011.7
20260905225606 35 345 0.0 3.2 0.00 0.00 0.00 52 1011.7
20260905225102 35 192 1.6 1.6 0.00 0.00 0.00 51 1011.6
20260905224601 35 180 0.0 0.0 0.00 0.00 0.00 51 1011.6
20260905224101 35 129 0.0 1.6 0.00 0.00 0.00 51 1011.8
20260905223558 35 228 0.0 1.6 0.00 0.00 0.00 50 1011.5
20260905223054 36 353 0.0 1.6 0.00 0.00 0.00 51 1011.5
20260905222554 36 284 0.0 3.2 0.00 0.00 0.00 51 1011.6
20260905222049 36 49 0.0 3.2 0.00 0.00 0.00 50 1011.6
20260905221545 36 322 0.0 1.6 0.00 0.00 0.00 50 1011.7
20260905221041 36 295 0.0 1.6 0.00 0.00 0.00 49 1011.5
20260905220537 37 9 0.0 3.2 0.00 0.00 0.00 48 1011.6
20260905220033 38 212 0.0 1.6 0.00 0.00 0.00 48 1011.8
20260905215532 36 233 0.0 0.0 0.00 0.00 0.00 54 1011.8
20260905215028 36 246 1.6 3.2 0.00 0.00 0.00 57 1011.8
20260905214524 35 219 0.0 0.0 0.00 0.00 0.00 51 1012.0
20260905214019 35 202 0.0 1.6 0.00 0.00 0.00 56 1012.0
20260905213514 35 269 0.0 0.0 0.00 0.00 0.00 51 1012.0
20260905213010 35 297 0.0 1.6 0.00 0.00 0.00 54 1012.0
20260905212459 36 333 0.0 0.0 0.00 0.00 0.00 53 1011.9
20260905211958 36 269 0.0 0.0 0.00 0.00 0.00 50 1011.9
20260905211454 36 315 0.0 3.2 0.00 0.00 0.00 51 1011.8
20260905210949 37 239 0.0 1.6 0.00 0.00 0.00 48 1011.7
20260905210445 37 323 0.0 4.8 0.00 0.00 0.00 47 1011.8
20260905205944 40 248 0.0 3.2 0.00 0.00 0.00 45 1011.9
20260905205439 39 291 1.6 3.2 0.00 0.00 0.00 44 1012.1
20260905204938 39 227 0.0 3.2 0.00 0.00 0.00 42 1012.0
20260905204434 39 20 0.0 3.2 0.00 0.00 0.00 42 1011.9
20260905203932 38 262 1.6 3.2 0.00 0.00 0.00 43 1012.2
20260905203429 38 325 3.2 3.2 0.00 0.00 0.00 44 1012.2
20260905202924 37 238 0.0 4.8 0.00 0.00 0.00 45 1012.0
20260905202419 38 289 3.2 6.4 0.00 0.00 0.00 44 1012.3
20260905201915 38 246 0.0 4.8 0.00 0.00 0.00 45 1012.4
20260905201409 38 297 3.2 4.8 0.00 0.00 0.00 43 1012.5
20260905200904 38 241 3.2 4.8 0.00 0.00 0.00 46 1012.5
20260905200400 37 219 1.6 3.2 0.00 0.00 0.00 46 1012.7
20260905195857 37 249 0.0 8.0 0.00 0.00 0.00 47 1012.6
20260905195353 37 239 3.2 4.8 0.00 0.00 0.00 46 1012.7
20260905194848 38 154 0.0 4.8 0.00 0.00 0.00 48 1012.8
20260905194347 38 222 3.2 6.4 0.00 0.00 0.00 46 1012.8
20260905193842 38 101 1.6 3.2 0.00 0.00 0.00 45 1012.7
20260905193337 38 225 0.0 6.4 0.00 0.00 0.00 44 1012.9
20260905192833 38 348 1.6 4.8 0.00 0.00 0.00 46 1013.0
20260905192328 38 341 3.2 8.0 0.00 0.00 0.00 47 1013.4
20260905191827 38 283 3.2 3.2 0.00 0.00 0.00 42 1013.2
20260905191326 38 217 0.0 6.4 0.00 0.00 0.00 46 1013.2
20260905190824 38 284 0.0 4.8 0.00 0.00 0.00 45 1013.6
20260905190319 37 329 3.2 3.2 0.00 0.00 0.00 44 1013.5
20260905185818 38 35 3.2 4.8 0.00 0.00 0.00 45 1013.7
20260905185313 37 317 4.8 6.4 0.00 0.00 0.00 48 1013.6
20260905184807 37 297 1.6 3.2 0.00 0.00 0.00 45 1013.7
20260905184305 37 312 3.2 8.0 0.00 0.00 0.00 46 1013.7
20260905183759 36 273 0.0 3.2 0.00 0.00 0.00 49 1013.6
20260905183255 37 310 4.8 6.4 0.00 0.00 0.00 47 1013.9
20260905182754 37 352 0.0 3.2 0.00 0.00 0.00 46 1013.8
20260905182253 38 224 0.0 4.8 0.00 0.00 0.00 48 1013.9
20260905181749 37 267 1.6 4.8 0.00 0.00 0.00 47 1013.8
20260905181243 37 309 3.2 4.8 0.00 0.00 0.00 45 1013.9
20260905180737 36 205 1.6 4.8 0.00 0.00 0.00 47 1013.8
20260905180232 36 325 4.8 4.8 0.00 0.00 0.00 47 1014.1
20260905175733 35 345 0.0 3.2 0.00 0.00 0.00 48 1013.9
20260905175233 35 351 0.0 3.2 0.00 0.00 0.00 51 1014.1
20260905174722 35 217 1.6 3.2 0.00 0.00 0.00 54 1014.2
20260905174218 36 224 1.6 3.2 0.00 0.00 0.00 54 1014.1
20260905173714 36 232 0.0 3.2 0.00 0.00 0.00 56 1014.1
20260905173209 36 224 0.0 3.2 0.00 0.00 0.00 55 1014.1
20260905172709 36 219 3.2 4.8 0.00 0.00 0.00 54 1014.1
20260905172203 36 322 1.6 4.8 0.00 0.00 0.00 54 1014.3
20260905171659 36 243 0.0 8.0 0.00 0.00 0.00 53 1014.2
20260905171155 36 203 4.8 6.4 0.00 0.00 0.00 53 1014.3
20260905170653 36 205 3.2 4.8 0.00 0.00 0.00 54 1014.2
20260905170152 35 217 11.3 11.3 0.00 0.00 0.00 54 1014.6
20260905165651 35 302 1.6 4.8 0.00 0.00 0.00 52 1014.5
20260905165147 36 217 3.2 6.4 0.00 0.00 0.00 52 1014.6
20260905164642 36 210 6.4 8.0 0.00 0.00 0.00 54 1014.7
20260905164141 36 190 3.2 3.2 0.00 0.00 0.00 53 1014.6
20260905163637 35 234 3.2 6.4 0.00 0.00 0.00 55 1014.7
20260905163134 35 172 1.6 3.2 0.00 0.00 0.00 56 1014.7
20260905162630 35 186 1.6 4.8 0.00 0.00 0.00 57 1015.0
20260905162129 35 168 3.2 4.8 0.00 0.00 0.00 55 1014.9
20260905161628 36 210 3.2 6.4 0.00 0.00 0.00 55 1014.7
20260905161126 35 164 1.6 6.4 0.00 0.00 0.00 55 1014.9
20260905160621 36 175 1.6 4.8 0.00 0.00 0.00 55 1014.9
20260905160120 36 237 1.6 4.8 0.00 0.00 0.00 58 1015.0
20260905155615 35 275 0.0 4.8 0.00 0.00 0.00 57 1014.8
20260905155114 34 230 4.8 6.4 0.00 0.00 0.00 61 1015.0
20260905154609 35 215 1.6 6.4 0.00 0.00 0.00 61 1015.1
20260905154104 36 300 3.2 3.2 0.00 0.00 0.00 58 1015.1
20260905153600 36 242 0.0 1.6 0.00 0.00 0.00 57 1015.0
20260905153054 35 237 1.6 4.8 0.00 0.00 0.00 58 1015.1
20260905152549 35 230 0.0 4.8 0.00 0.00 0.00 59 1015.3
20260905152044 33 258 1.6 4.8 0.00 0.00 0.00 60 1015.3
20260905151539 33 250 1.6 3.2 0.00 0.00 0.00 66 1015.3
20260905151034 33 330 0.0 3.2 0.00 0.00 0.00 68 1015.3
20260905150530 32 218 3.2 3.2 0.00 0.00 0.00 68 1015.3
20260905150028 33 216 3.2 4.8 0.00 0.00 0.00 68 1015.4
20260905145521 33 228 3.2 3.2 0.00 0.00 0.00 65 1015.4
20260905145021 34 244 0.0 1.6 0.00 0.00 0.00 63 1015.1
20260905144516 33 205 0.0 3.2 0.00 0.00 0.00 67 1015.3
20260905144015 33 225 3.2 3.2 0.00 0.00 0.00 68 1015.3
20260905143514 33 299 0.0 1.6 0.00 0.00 0.00 65 1015.3
20260905143009 32 251 3.2 3.2 0.00 0.00 0.00 68 1015.1
20260905142508 31 160 0.0 0.0 0.00 0.00 0.00 71 1015.1
20260905142003 31 174 0.0 3.2 0.00 0.00 0.00 71 1015.0
20260905141457 31 183 0.0 3.2 0.00 0.00 0.00 72 1015.0
20260905140954 32 201 0.0 0.0 0.00 0.00 0.00 68 1015.0
20260905140449 31 104 0.0 1.6 0.00 0.00 0.00 71 1015.3
20260905135947 30 154 0.0 3.2 0.00 0.00 0.00 75 1015.0
20260905135443 30 218 0.0 1.6 0.00 0.00 0.00 76 1015.0
20260905134939 28 169 1.6 3.2 0.00 0.00 0.00 81 1015.0
20260905134438 28 202 1.6 1.6 0.00 0.00 0.00 81 1015.1
20260905133937 28 217 0.0 1.6 0.00 0.00 0.00 82 1015.0
20260905133432 28 164 1.6 1.6 0.00 0.00 0.00 79 1015.0
20260905132932 28 162 1.6 3.2 0.00 0.00 0.00 78 1015.0
20260905132427 29 212 0.0 0.0 0.00 0.00 0.00 77 1014.9
20260905131922 28 156 0.0 3.2 0.00 0.00 0.00 80 1015.0
20260905131418 28 166 3.2 3.2 0.00 0.00 0.00 79 1015.3
20260905130912 28 150 0.0 1.6 0.00 0.00 0.00 82 1015.1
20260905130412 27 173 1.6 1.6 0.00 0.00 0.00 84 1014.9
20260905125906 27 0 0.0 1.6 0.00 0.00 0.00 86 1014.9
20260905125406 26 19 0.0 1.6 0.00 0.00 0.00 92 1015.1
20260905124902 25 180 0.0 3.2 0.00 0.00 0.00 93 1014.8
20260905124359 25 180 0.0 3.2 0.00 0.00 0.00 94 1014.8
20260905123858 25 126 0.0 1.6 0.00 0.00 0.00 95 1014.8
20260905123355 24 315 0.0 1.6 0.00 0.00 0.00 96 1014.7
20260905122851 24 180 1.6 3.2 0.00 0.00 0.00 98 1014.7
20260905122350 23 202 0.0 3.2 0.00 0.00 0.00 99 1014.6
20260905121845 23 89 0.0 1.6 0.00 0.00 0.00 99 1014.7
20260905121341 23 119 0.0 1.6 0.00 0.00 0.00 99 1014.7
20260905120840 23 113 0.0 0.0 0.00 0.00 0.00 99 1014.9
20260905120340 23 269 0.0 1.6 0.00 0.00 0.00 99 1014.8
20260905115835 23 116 0.0 1.6 0.00 0.00 0.00 99 1014.7
20260905115334 23 34 0.0 1.6 0.00 0.00 0.00 99 1014.5
20260905114829 23 154 0.0 1.6 0.00 0.00 0.00 99 1014.5
20260905114329 22 76 0.0 0.0 0.00 0.00 0.00 99 1014.2
20260905113827 23 135 0.0 0.0 0.00 0.00 0.00 99 1014.3
20260905113323 23 76 0.0 1.6 0.00 0.00 0.00 99 1014.3
20260905112818 23 89 0.0 1.6 0.00 0.00 0.00 99 1014.4
20260905112314 23 89 0.0 0.0 0.00 0.00 0.00 99 1014.5
20260905111809 23 241 1.6 1.6 0.00 0.00 0.00 99 1014.2
20260905111309 23 145 0.0 0.0 0.00 0.00 0.00 99 1014.3
20260905110808 23 358 0.0 3.2 0.00 0.00 0.00 99 1014.3
20260905110301 23 89 0.0 1.6 0.00 0.00 0.00 99 1014.1
20260905105758 23 14 0.0 1.6 0.00 0.00 0.00 99 1014.0
20260905105256 23 147 0.0 1.6 0.00 0.00 0.00 99 1014.0
20260905104751 23 265 0.0 0.0 0.00 0.00 0.00 99 1013.8
20260905104248 23 88 0.0 0.0 0.00 0.00 0.00 99 1013.9
20260905103747 23 170 0.0 1.6 0.00 0.00 0.00 99 1014.0
20260905103242 23 135 0.0 1.6 0.00 0.00 0.00 98 1014.0
20260905102738 23 195 0.0 0.0 0.00 0.00 0.00 98 1014.0
20260905102235 23 25 0.0 1.6 0.00 0.00 0.00 98 1013.8
20260905101734 23 50 0.0 0.0 0.00 0.00 0.00 98 1013.9
20260905101232 23 129 0.0 1.6 0.00 0.00 0.00 98 1014.0
20260905100728 23 164 0.0 1.6 0.00 0.00 0.00 98 1014.1
20260905100223 23 160 1.6 1.6 0.00 0.00 0.00 98 1014.0
20260905095718 23 75 0.0 1.6 0.00 0.00 0.00 98 1014.0
20260905095218 23 282 0.0 0.0 0.00 0.00 0.00 98 1014.3
20260905094712 23 157 0.0 0.0 0.00 0.00 0.00 98 1014.0
20260905094207 23 157 0.0 0.0 0.00 0.00 0.00 98 1014.1
20260905093707 23 157 0.0 0.0 0.00 0.00 0.00 97 1014.1
20260905093203 23 157 0.0 0.0 0.00 0.00 0.00 97 1014.0
20260905092658 23 122 0.0 0.0 0.00 0.00 0.00 97 1014.0
20260905092154 23 117 0.0 0.0 0.00 0.00 0.00 97 1013.8
20260905091653 23 130 0.0 0.0 0.00 0.00 0.00 97 1014.1
20260905091153 23 130 0.0 0.0 0.00 0.00 0.00 97 1014.0
20260905090647 23 135 0.0 0.0 0.00 0.00 0.00 97 1014.1
20260905090143 23 180 0.0 0.0 0.00 0.00 0.00 96 1013.9
20260905085641 23 224 0.0 0.0 0.00 0.00 0.00 96 1013.8
20260905085137 23 222 0.0 0.0 0.00 0.00 0.00 96 1013.9
20260905084637 24 217 0.0 0.0 0.00 0.00 0.00 96 1014.1
20260905084132 24 129 0.0 0.0 0.00 0.00 0.00 96 1013.9
20260905083632 24 129 0.0 0.0 0.00 0.00 0.00 96 1013.8
20260905083128 24 154 0.0 0.0 0.00 0.00 0.00 95 1013.9
20260905082624 24 164 0.0 0.0 0.00 0.00 0.00 95 1013.8
20260905082119 24 173 0.0 1.6 0.00 0.00 0.00 95 1013.9
20260905081613 24 229 0.0 0.0 0.00 0.00 0.00 95 1013.9
20260905081108 24 205 0.0 0.0 0.00 0.00 0.00 95 1013.9
20260905080603 24 217 0.0 0.0 0.00 0.00 0.00 95 1013.8
20260905080057 24 217 0.0 0.0 0.00 0.00 0.00 94 1014.0
20260905075550 24 217 0.0 0.0 0.00 0.00 0.00 94 1013.7
20260905075044 24 235 0.0 0.0 0.00 0.00 0.00 94 1013.8
20260905074538 25 207 0.0 1.6 0.00 0.00 0.00 93 1013.8
20260905074034 25 217 0.0 0.0 0.00 0.00 0.00 93 1013.8
20260905073530 25 322 0.0 0.0 0.00 0.00 0.00 92 1013.9
20260905073026 25 338 1.6 1.6 0.00 0.00 0.00 92 1013.6
20260905072524 25 343 0.0 0.0 0.00 0.00 0.00 93 1013.9
20260905072020 25 217 0.0 0.0 0.00 0.00 0.00 94 1013.7
20260905071517 25 154 0.0 0.0 0.00 0.00 0.00 94 1013.8
20260905071017 25 145 0.0 0.0 0.00 0.00 0.00 93 1013.9
20260905070512 25 142 0.0 0.0 0.00 0.00 0.00 93 1013.7
20260905070008 25 160 0.0 1.6 0.00 0.00 0.00 93 1014.0
20260905065506 25 154 0.0 1.6 0.00 0.00 0.00 92 1013.8
20260905065001 25 154 0.0 0.0 0.00 0.00 0.00 92 1013.9
20260905064455 25 205 0.0 0.0 0.00 0.00 0.00 92 1014.0
20260905063950 25 202 0.0 0.0 0.00 0.00 0.00 93 1014.1
20260905063439 25 164 0.0 0.0 0.00 0.00 0.00 92 1014.0
20260905062936 25 154 0.0 0.0 0.00 0.00 0.00 92 1013.9
20260905062436 25 154 0.0 0.0 0.00 0.00 0.00 91 1013.8
20260905061931 25 255 0.0 0.0 0.00 0.00 0.00 91 1014.0
20260905061431 25 255 0.0 0.0 0.00 0.00 0.00 91 1013.9
20260905060930 25 164 0.0 0.0 0.00 0.00 0.00 90 1013.9
20260905060427 25 164 0.0 0.0 0.00 0.00 0.00 91 1014.0
20260905055926 25 164 0.0 0.0 0.00 0.00 0.00 90 1013.9
20260905055421 25 164 0.0 0.0 0.00 0.00 0.00 89 1014.0
20260905054920 25 142 0.0 0.0 0.00 0.00 0.00 89 1014.0
20260905054416 25 75 0.0 0.0 0.00 0.00 0.00 89 1014.1
20260905053915 25 37 0.0 0.0 0.00 0.00 0.00 89 1014.2
20260905053410 25 37 0.0 0.0 0.00 0.00 0.00 89 1014.2
20260905052906 25 37 0.0 0.0 0.00 0.00 0.00 89 1014.0
20260905052405 25 124 0.0 0.0 0.00 0.00 0.00 89 1014.3
20260905051905 25 25 0.0 0.0 0.00 0.00 0.00 88 1014.1
20260905051401 26 25 0.0 0.0 0.00 0.00 0.00 88 1014.1
20260905050858 26 25 0.0 0.0 0.00 0.00 0.00 87 1014.0
20260905050354 26 25 0.0 0.0 0.00 0.00 0.00 86 1014.2
20260905045849 26 202 0.0 0.0 0.00 0.00 0.00 86 1014.0
20260905045344 26 230 0.0 0.0 0.00 0.00 0.00 87 1014.2
20260905044839 26 230 0.0 0.0 0.00 0.00 0.00 86 1014.2
20260905044335 26 255 0.0 0.0 0.00 0.00 0.00 86 1014.5
20260905043833 26 55 0.0 0.0 0.00 0.00 0.00 86 1014.5
20260905043328 26 22 0.0 0.0 0.00 0.00 0.00 85 1014.5
20260905042823 26 154 0.0 0.0 0.00 0.00 0.00 84 1014.6
20260905042322 26 154 0.0 1.6 0.00 0.00 0.00 84 1014.5
20260905041817 26 228 0.0 0.0 0.00 0.00 0.00 85 1014.5
20260905041313 26 353 0.0 0.0 0.00 0.00 0.00 83 1014.6
20260905040808 26 353 0.0 0.0 0.00 0.00 0.00 83 1014.7
20260905040307 26 353 0.0 0.0 0.00 0.00 0.00 83 1014.6
20260905035801 26 353 0.0 0.0 0.00 0.00 0.00 83 1014.7
20260905035257 26 129 0.0 0.0 0.00 0.00 0.00 83 1014.6
20260905034754 26 129 0.0 0.0 0.00 0.00 0.00 83 1014.6
20260905034254 26 142 0.0 0.0 0.00 0.00 0.00 83 1014.7
20260905033752 26 135 0.0 0.0 0.00 0.00 0.00 83 1014.6
20260905033248 26 135 0.0 0.0 0.00 0.00 0.00 83 1014.7
20260905032747 27 135 0.0 0.0 0.00 0.00 0.00 83 1014.7
20260905032243 27 205 0.0 0.0 0.00 0.00 0.00 82 1014.5
20260905031738 27 213 0.0 3.2 0.00 0.00 0.00 81 1014.5
20260905031234 27 135 0.0 0.0 0.00 0.00 0.00 81 1014.5
20260905030729 27 135 0.0 0.0 0.00 0.00 0.00 81 1014.7